Jida, China

6:17 AM CST on June 28, 2017 (GMT +0800)
Jida

Weather History for 45011 - June, 2013

Change the Weather History Date:

Wednesday, June 5, 2013

  Actual Average Record
Temperature  
Mean Temperature 82 °F -  
Max Temperature 87 °F 83 °F - ()
Min Temperature 77 °F 76 °F - ()
Cooling Degree Days 17    
Growing Degree Days 32 (Base 50)    
Moisture  
Dew Point 75 °F    
Average Humidity 83    
Maximum Humidity 95    
Minimum Humidity 71    
Precipitation  
Precipitation 0.28 in - - ()
Sea Level Pressure  
Sea Level Pressure 29.84 in    
Wind  
Wind Speed 7 mph ()    
Max Wind Speed 16 mph    
Max Gust Speed -    
Visibility 7.0 miles    
Events Rain    
T = Trace of Precipitation, MM = Missing Value Source: Averaged Metar Reports

Daily Weather History Graph

Daily Weather History Graph

Search for Another Location

Airport or City:

Trip Planner

Search our weather history database for the weather conditions in past years. The results will help you decide how hot, cold, wet, or windy it might be!

Date:

Astronomy

Jun. 05, 2013 Rise Set
Actual Time 5:41 AM CST 7:07 PM CST
Civil Twilight 5:16 AM CST 7:32 PM CST
Nautical Twilight 4:46 AM CST 8:01 PM CST
Astronomical Twilight 4:16 AM CST 8:32 PM CST
Moon 3:06 AM CST (6/5) 4:17 PM CST (6/5)
Length of Visible Light 14h 15m
Length of Day
13h 25m
Waning Crescent, 11% of the Moon is Illuminated
Jun 5
Waning Crescent
Jun 8
New
Jun 17
First Quarter
Jun 23
Full
Jun 30
Last Quarter

Hourly Weather History & Observations

Time (CST) Temp. Heat Index Dew Point Humidity Pressure Visibility Wind Dir Wind Speed Gust Speed Precip Events Conditions
12:00 AM 82.4 °F 89.5 °F 75.2 °F 79% 29.83 in 6.2 mi SE 4.6 mph - N/A Rain Light Rain Showers
12:30 AM 82.4 °F 89.5 °F 75.2 °F 79% 29.83 in 6.2 mi SE 9.2 mph - N/A   Scattered Clouds
1:00 AM 82.4 °F 89.5 °F 75.2 °F 79% 29.83 in 6.2 mi ESE 8.1 mph - N/A   Scattered Clouds
1:30 AM 82.4 °F 89.5 °F 75.2 °F 79% 29.83 in 6.2 mi ESE 8.1 mph - N/A   Scattered Clouds
2:00 AM 81 °F - 77 °F 84% 29.84 in 12 mi ESE 5.8 mph - -   Unknown
2:00 AM 82.4 °F 89.5 °F 75.2 °F 79% 29.80 in 6.2 mi East 8.1 mph - N/A   Partly Cloudy
2:30 AM 82.4 °F 90.9 °F 77.0 °F 84% 29.80 in 6.2 mi ESE 9.2 mph - N/A   Scattered Clouds
3:00 AM 78.8 °F - 73.4 °F 83% 29.80 in 6.2 mi South 15.0 mph - N/A Rain Light Rain Showers
3:30 AM 78.8 °F - 73.4 °F 83% 29.83 in 6.2 mi SE 13.8 mph - N/A   Scattered Clouds
4:00 AM 80.6 °F 86.2 °F 75.2 °F 84% 29.80 in 6.2 mi SE 16.1 mph - N/A   Scattered Clouds
4:30 AM 80.6 °F 86.2 °F 75.2 °F 84% 29.83 in 6.2 mi SE 11.5 mph - N/A   Scattered Clouds
5:00 AM 79 °F - 76 °F 87% 29.85 in 16 mi SSE 4.6 mph - -   Clear
5:00 AM 80.6 °F 86.2 °F 75.2 °F 84% 29.83 in 6.2 mi South 10.4 mph - N/A   Scattered Clouds
5:30 AM 78.8 °F - 73.4 °F 83% 29.83 in 6.2 mi SW 6.9 mph - N/A Rain Light Rain Showers
6:00 AM 78.8 °F - 73.4 °F 83% 29.83 in 6.2 mi SW 5.8 mph - N/A Rain Light Rain Showers
6:30 AM 80.6 °F 84.6 °F 71.6 °F 74% 29.83 in 6.2 mi SW 5.8 mph - N/A   Scattered Clouds
7:00 AM 80.6 °F 86.2 °F 75.2 °F 84% 29.86 in 6.2 mi SW 9.2 mph - N/A   Scattered Clouds
7:30 AM 80.6 °F 86.2 °F 75.2 °F 84% 29.86 in 6.2 mi SW 8.1 mph - N/A   Scattered Clouds
8:00 AM 81 °F - 76 °F 82% 29.87 in 12 mi South 5.8 mph - -   Clear
8:00 AM 80.6 °F 86.2 °F 75.2 °F 84% 29.86 in 6.2 mi WSW 5.8 mph - N/A   Partly Cloudy
8:30 AM 82.4 °F 89.5 °F 75.2 °F 79% 29.86 in 6.2 mi SSW 4.6 mph - N/A   Partly Cloudy
9:00 AM 82.4 °F 90.9 °F 77.0 °F 84% 29.86 in 6.2 mi South 3.5 mph - N/A   Partly Cloudy
9:30 AM 82.4 °F 90.9 °F 77.0 °F 84% 29.86 in 6.2 mi South 3.5 mph - N/A   Partly Cloudy
10:00 AM 82.4 °F 89.5 °F 75.2 °F 79% 29.86 in 6.2 mi SSE 3.5 mph - N/A   Partly Cloudy
10:30 AM 84.2 °F 94.1 °F 77.0 °F 79% 29.86 in 6.2 mi SSE 3.5 mph - N/A   Partly Cloudy
11:00 AM 86 °F - 78 °F 71% 29.89 in 16 mi SE 4.6 mph - -  
11:00 AM 86.0 °F 96.9 °F 77.0 °F 74% 29.86 in 6.2 mi SSE 4.6 mph - N/A   Partly Cloudy
11:30 AM 84.2 °F 94.1 °F 77.0 °F 79% 29.86 in 6.2 mi ESE 6.9 mph - N/A   Partly Cloudy
12:00 PM 84.2 °F 94.1 °F 77.0 °F 79% 29.86 in 6.2 mi ESE 4.6 mph - N/A   Partly Cloudy
12:13 PM 84.2 °F 92.3 °F 75.2 °F 74% 29.86 in 0.7 mi SSE 5.8 mph - N/A Rain Rain Showers
12:30 PM 77.0 °F - 73.4 °F 89% 29.86 in 3.1 mi West 16.1 mph - N/A Rain Light Rain Showers
1:00 PM 77.0 °F - 71.6 °F 83% 29.86 in 6.2 mi West 8.1 mph - N/A Rain Light Rain Showers
1:30 PM 80.6 °F 85.4 °F 73.4 °F 79% 29.86 in 6.2 mi South 5.8 mph - N/A Rain Light Rain Showers
2:00 PM 79 °F - 76 °F 89% 29.87 in 12 mi SSE 4.6 mph - - Rain Rain Showers
2:00 PM 80.6 °F 86.2 °F 75.2 °F 84% 29.86 in 6.2 mi East 4.6 mph - N/A Rain Light Rain Showers
2:30 PM 80.6 °F 85.4 °F 73.4 °F 79% 29.83 in 6.2 mi SE 6.9 mph - N/A   Scattered Clouds
3:00 PM 78.8 °F - 73.4 °F 83% 29.83 in 6.2 mi SE 8.1 mph - N/A Rain Light Rain Showers
3:30 PM 78.8 °F - 75.2 °F 89% 29.83 in 6.2 mi ESE 6.9 mph - N/A Rain Light Rain Showers
4:00 PM 78.8 °F - 73.4 °F 83% 29.83 in 6.2 mi ESE 9.2 mph - N/A Rain Light Rain Showers
4:30 PM 78.8 °F - 73.4 °F 83% 29.80 in 6.2 mi ESE 8.1 mph - N/A Rain Light Rain Showers
5:00 PM 79 °F - 76 °F 87% 29.82 in 9 mi SE 4.6 mph - - Rain Rain Showers
5:00 PM 78.8 °F - 75.2 °F 89% 29.80 in 6.2 mi SE 10.4 mph - N/A Rain Light Rain Showers
5:30 PM 78.8 °F - 75.2 °F 89% 29.80 in 6.2 mi SE 9.2 mph - N/A Rain Light Rain Showers
6:00 PM 78.8 °F - 75.2 °F 89% 29.83 in 6.2 mi ESE 6.9 mph - N/A Rain Light Rain Showers
6:30 PM 78.8 °F - 75.2 °F 89% 29.83 in 6.2 mi ESE 5.8 mph - N/A Rain Light Rain Showers
7:00 PM 78.8 °F - 75.2 °F 89% 29.83 in 6.2 mi ESE 6.9 mph - N/A Rain Light Rain Showers
7:30 PM 80.6 °F 86.2 °F 75.2 °F 84% 29.83 in 6.2 mi ESE 5.8 mph - N/A Rain Light Rain Showers
8:00 PM 77 °F - 76 °F 95% 29.87 in 12 mi SSE 6.9 mph - - Rain Rain Showers
8:00 PM 80.6 °F 86.2 °F 75.2 °F 84% 29.83 in 6.2 mi SE 6.9 mph - N/A   Partly Cloudy
8:30 PM 80.6 °F 86.2 °F 75.2 °F 84% 29.86 in 6.2 mi SE 8.1 mph - N/A   Scattered Clouds
9:00 PM 80.6 °F 86.2 °F 75.2 °F 84% 29.86 in 6.2 mi SE 8.1 mph - N/A Rain Light Rain Showers
9:30 PM 80.6 °F 86.2 °F 75.2 °F 84% 29.83 in 6.2 mi ESE 11.5 mph - N/A   Scattered Clouds
10:00 PM 80.6 °F 86.2 °F 75.2 °F 84% 29.83 in 6.2 mi ESE 12.7 mph - N/A Rain Light Rain Showers
10:30 PM 80.6 °F 86.2 °F 75.2 °F 84% 29.86 in 6.2 mi ESE 12.7 mph - N/A   Scattered Clouds
11:00 PM 79 °F - 76 °F 90% 29.88 in 12 mi SE 5.8 mph - - Rain Rain Showers
11:00 PM 80.6 °F 86.2 °F 75.2 °F 84% 29.86 in 6.2 mi ESE 12.7 mph - N/A   Partly Cloudy
11:30 PM 80.6 °F 87.1 °F 77.0 °F 89% 29.86 in 6.2 mi ESE 11.5 mph - N/A   Partly Cloudy